QPF
0.00 0.00 0.00 0.00 0.00 0.00 0.00 0.00 0.00 0.00 0.00 0.00 0.00 0.00 0.00 0.00 0.03 0.06 0.06 0.01 0.07 0.02 0.06 0.04 0.00 0.00 0.00 0.00 0.00 0.00 0.00 0.00 0.00 0.00 0.00 0.00 0.00 0.00 0.00 0.00 0.00 0.00
0.02 0.00 0.00 0.00 0.00 0.00 0.00 0.00 0.00 0.00 0.00 0.00 0.00 0.00 0.00 0.00 0.03 0.01 0.00 0.03 0.00 0.00 0.03 0.00 0.00 0.00 0.00 0.00 0.00 0.00 0.00 0.00 0.00 0.00 0.00 0.00 0.00 0.00 0.00 0.00 0.00 0.00
0.13 0.04 0.00 0.00 0.00 0.00 0.00 0.00 0.00 0.00 0.00 0.00 0.00 0.00 0.00 0.00 0.00 0.00 0.00 0.00 0.00 0.00 0.00 0.00 0.00 0.00 0.00 0.00 0.00 0.00 0.00 0.00 0.00 0.00 0.00 0.00 0.00 0.00 0.00 0.00 0.00 0.00
0.18 0.17 0.01 0.00 0.00 0.00 0.00 0.00 0.00 0.00 0.00 0.00 0.00 0.00 0.00 0.00 0.00 0.00 0.00 0.00 0.00 0.00 0.00 0.00 0.00 0.00 0.00 0.00 0.00 0.00 0.00 0.00 0.00 0.00 0.00 0.00 0.00 0.00 0.00 0.00 0.00 0.00
0.23 0.10 0.01 0.01 0.00 0.00 0.00 0.00 0.00 0.00 0.00 0.00 0.00 0.00 0.00 0.00 0.00 0.00 0.00 0.00 0.00 0.00 0.00 0.00 0.00 0.00 0.00 0.00 0.00 0.00 0.00 0.00 0.00 0.00 0.00 0.00 0.00 0.00 0.00 0.00 0.00 0.00
0.12 0.03 0.03 0.01 0.00 0.00 0.00 0.00 0.00 0.00 0.00 0.00 0.00 0.00 0.00 0.00 0.00 0.00 0.00 0.00 0.00 0.00 0.00 0.00 0.00 0.00 0.00 0.00 0.00 0.00 0.00 0.00 0.00 0.00 0.00 0.00 0.00 0.00 0.00 0.00 0.00 0.00
0.06 0.05 0.31 0.34 0.06 0.00 0.00 0.00 0.00 0.00 0.00 0.00 0.00 0.00 0.00 0.00 0.00 0.00 0.00 0.00 0.00 0.00 0.00 0.00 0.00 0.00 0.00 0.00 0.00 0.00 0.00 0.00 0.00 0.00 0.00 0.00 0.00 0.00 0.00 0.00 0.00 0.00
0.33 0.45 0.47 0.32 0.34 0.12 0.00 0.00 0.00 0.00 0.00 0.00 0.00 0.00 0.00 0.00 0.00 0.00 0.00 0.00 0.00 0.00 0.00 0.00 0.00 0.00 0.00 0.00 0.00 0.00 0.00 0.00 0.00 0.00 0.00 0.00 0.00 0.00 0.00 0.00 0.00 0.00
0.35 0.29 0.36 0.33 0.33 0.26 0.02 0.00 0.00 0.00 0.00 0.00 0.00 0.00 0.00 0.00 0.00 0.00 0.00 0.00 0.00 0.00 0.00 0.00 0.00 0.00 0.00 0.00 0.00 0.00 0.00 0.00 0.00 0.00 0.00 0.00 0.00 0.00 0.00 0.00 0.00 0.00
0.37 0.39 0.30 0.18 0.29 0.24 0.05 0.00 0.00 0.00 0.00 0.00 0.00 0.00 0.00 0.00 0.00 0.00 0.00 0.00 0.00 0.00 0.00 0.00 0.00 0.00 0.00 0.00 0.00 0.00 0.00 0.00 0.00 0.00 0.00 0.00 0.00 0.00 0.00 0.00 0.00 0.00
0.17 0.16 0.13 0.28 0.30 0.22 0.14 0.01 0.00 0.00 0.00 0.00 0.00 0.00 0.00 0.00 0.00 0.00 0.00 0.00 0.00 0.00 0.00 0.00 0.00 0.00 0.00 0.00 0.00 0.00 0.00 0.00 0.00 0.00 0.00 0.00 0.00 0.00 0.00 0.00 0.00 0.00
0.24 0.36 0.35 0.35 0.35 0.32 0.26 0.07 0.00 0.00 0.00 0.00 0.00 0.00 0.00 0.00 0.00 0.00 0.00 0.00 0.00 0.00 0.00 0.00 0.00 0.00 0.00 0.00 0.00 0.00 0.00 0.00 0.00 0.00 0.00 0.00 0.00 0.00 0.00 0.00 0.00 0.00
0.10 0.40 0.53 0.57 0.54 0.53 0.50 0.22 0.04 0.00 0.00 0.00 0.00 0.00 0.00 0.00 0.00 0.00 0.00 0.00 0.00 0.00 0.00 0.00 0.00 0.00 0.00 0.00 0.00 0.00 0.00 0.00 0.00 0.00 0.00 0.00 0.00 0.00 0.00 0.00 0.00 0.00
0.05 0.12 0.40 0.40 0.45 0.44 0.33 0.13 0.03 0.00 0.00 0.00 0.00 0.00 0.00 0.00 0.00 0.00 0.00 0.00 0.00 0.00 0.00 0.00 0.00 0.00 0.00 0.00 0.00 0.00 0.00 0.00 0.00 0.00 0.00 0.00 0.00 0.00 0.00 0.00 0.00 0.00
0.07 0.04 0.12 0.40 0.38 0.34 0.23 0.10 0.03 0.00 0.00 0.00 0.00 0.00 0.00 0.00 0.00 0.00 0.00 0.00 0.00 0.00 0.00 0.00 0.00 0.00 0.00 0.00 0.00 0.00 0.00 0.00 0.00 0.00 0.00 0.00 0.00 0.00 0.00 0.00 0.00 0.00
0.07 0.08 0.05 0.07 0.34 0.30 0.14 0.07 0.00 0.00 0.00 0.00 0.00 0.00 0.00 0.00 0.00 0.00 0.00 0.00 0.00 0.00 0.00 0.00 0.00 0.00 0.00 0.00 0.00 0.00 0.00 0.00 0.00 0.00 0.00 0.00 0.00 0.00 0.00 0.00 0.00 0.00
0.19 0.04 0.04 0.10 0.05 0.13 0.11 0.04 0.02 0.00 0.00 0.00 0.00 0.00 0.00 0.00 0.00 0.00 0.00 0.00 0.00 0.00 0.00 0.00 0.00 0.00 0.00 0.00 0.00 0.00 0.00 0.00 0.00 0.00 0.00 0.00 0.00 0.00 0.00 0.00 0.00 0.00
0.07 0.35 0.30 0.39 0.18 0.14 0.29 0.22 0.05 0.02 0.00 0.00 0.00 0.00 0.00 0.00 0.00 0.00 0.00 0.00 0.00 0.00 0.00 0.00 0.00 0.00 0.00 0.00 0.00 0.00 0.00 0.00 0.00 0.00 0.00 0.00 0.00 0.00 0.00 0.00 0.00 0.00
0.16 0.37 0.52 0.39 0.27 0.26 0.26 0.34 0.24 0.24 0.05 0.00 0.00 0.00 0.00 0.00 0.00 0.00 0.00 0.00 0.00 0.00 0.00 0.00 0.00 0.00 0.00 0.00 0.00 0.00 0.00 0.00 0.00 0.00 0.00 0.00 0.00 0.00 0.00 0.00 0.00 0.00
0.84 0.31 0.37 0.48 0.36 0.34 0.37 0.30 0.33 0.22 0.14 0.01 0.00 0.00 0.00 0.00 0.00 0.00 0.00 0.00 0.00 0.00 0.00 0.00 0.00 0.00 0.00 0.00 0.00 0.00 0.00 0.00 0.00 0.00 0.00 0.00 0.00 0.00 0.00 0.00 0.00 0.00
0.77 0.56 0.49 0.54 0.42 0.32 0.24 0.27 0.33 0.25 0.39 0.11 0.00 0.00 0.00 0.00 0.00 0.00 0.00 0.00 0.00 0.00 0.00 0.00 0.00 0.00 0.00 0.00 0.00 0.00 0.00 0.00 0.00 0.00 0.00 0.00 0.00 0.00 0.00 0.00 0.00 0.00
0.19 0.09 0.45 0.49 0.48 0.29 0.25 0.27 0.24 0.26 0.19 0.27 0.04 0.01 0.00 0.00 0.00 0.00 0.00 0.00 0.00 0.00 0.00 0.00 0.00 0.00 0.00 0.00 0.00 0.00 0.00 0.00 0.00 0.00 0.00 0.00 0.00 0.00 0.00 0.00 0.00 0.00
0.16 0.27 0.15 0.38 0.72 0.35 0.21 0.25 0.22 0.44 0.27 0.26 0.10 0.03 0.00 0.00 0.00 0.00 0.00 0.00 0.00 0.00 0.00 0.00 0.00 0.00 0.00 0.00 0.00 0.00 0.00 0.00 0.00 0.00 0.00 0.00 0.00 0.00 0.00 0.00 0.00 0.00
0.13 0.19 0.35 0.39 0.34 0.41 0.21 0.20 0.26 0.30 0.31 0.41 0.27 0.08 0.02 0.00 0.00 0.00 0.00 0.00 0.00 0.00 0.00 0.00 0.00 0.00 0.00 0.00 0.00 0.00 0.00 0.00 0.00 0.00 0.00 0.00 0.00 0.00 0.00 0.00 0.00 0.00
0.56 0.42 0.35 0.82 0.54 0.51 0.42 0.32 0.28 0.28 0.23 0.20 0.12 0.07 0.02 0.00 0.00 0.00 0.00 0.00 0.00 0.00 0.00 0.00 0.00 0.00 0.00 0.00 0.00 0.00 0.00 0.00 0.00 0.00 0.00 0.00 0.00 0.00 0.00 0.00 0.00 0.00
0.06 0.17 0.33 0.37 0.52 0.71 0.64 0.55 0.49 0.38 0.29 0.30 0.19 0.14 0.04 0.01 0.00 0.00 0.00 0.00 0.00 0.00 0.00 0.00 0.00 0.00 0.00 0.00 0.00 0.00 0.00 0.00 0.00 0.00 0.00 0.00 0.00 0.00 0.00 0.00 0.00 0.00
MSLP
1014.20 1014.20 1014.28 1014.36 1014.52 1014.76 1015.12 1015.48 1015.60 1015.72 1015.84 1016.00 1016.16 1016.24 1016.24 1016.24 1016.76 1016.96 1016.72 1016.64 1016.48 1016.56 1016.80 1016.84 1016.92 1017.08 1017.16 1017.44 1017.72 1017.84 1017.92 1018.12 1018.24 1018.44 1018.68 1018.76 1018.92 1019.04 1019.24 1019.28 1019.36 1019.36
1014.72 1014.48 1014.48 1014.52 1014.60 1014.76 1014.96 1015.08 1015.24 1015.40 1015.64 1015.76 1015.84 1015.96 1016.08 1016.16 1016.88 1016.80 1016.72 1016.56 1016.36 1016.44 1016.56 1016.72 1016.88 1016.96 1017.04 1017.36 1017.64 1017.84 1018.00 1018.08 1018.24 1018.36 1018.64 1018.80 1018.88 1018.96 1019.08 1019.12 1019.20 1019.32
1015.68 1015.16 1014.80 1014.80 1014.68 1014.72 1014.80 1014.92 1015.00 1015.12 1015.32 1015.48 1015.68 1015.80 1015.96 1015.96 1016.40 1016.52 1016.56 1016.44 1016.48 1016.44 1016.56 1016.60 1016.72 1016.88 1017.04 1017.28 1017.56 1017.76 1017.96 1018.08 1018.24 1018.40 1018.56 1018.76 1018.88 1018.92 1018.96 1019.08 1019.20 1019.28
1015.80 1015.92 1015.04 1014.76 1014.60 1014.56 1014.64 1014.84 1015.00 1015.08 1015.16 1015.40 1015.52 1015.56 1015.68 1015.84 1016.04 1016.40 1016.44 1016.40 1016.48 1016.48 1016.52 1016.56 1016.60 1016.84 1017.04 1017.24 1017.52 1017.84 1017.96 1018.08 1018.20 1018.40 1018.60 1018.76 1018.80 1018.84 1018.96 1019.08 1019.20 1019.36
1014.88 1015.60 1015.28 1014.72 1014.48 1014.32 1014.44 1014.64 1014.88 1015.00 1015.08 1015.08 1015.20 1015.32 1015.52 1015.72 1015.92 1016.16 1016.36 1016.48 1016.52 1016.64 1016.60 1016.56 1016.60 1016.92 1017.16 1017.36 1017.48 1017.76 1017.96 1018.08 1018.20 1018.32 1018.48 1018.68 1018.76 1018.80 1018.96 1019.08 1019.24 1019.40
1013.68 1014.28 1014.88 1014.76 1014.28 1014.24 1014.24 1014.44 1014.64 1014.88 1015.00 1015.08 1015.12 1015.20 1015.36 1015.52 1015.72 1015.92 1016.16 1016.40 1016.60 1016.64 1016.68 1016.64 1016.72 1017.04 1017.28 1017.40 1017.48 1017.68 1017.88 1018.08 1018.16 1018.24 1018.44 1018.64 1018.76 1018.80 1018.88 1019.08 1019.24 1019.36
1013.96 1014.12 1014.76 1015.32 1015.00 1014.16 1014.12 1014.24 1014.52 1014.76 1014.88 1014.92 1015.12 1015.24 1015.28 1015.52 1015.68 1015.84 1015.96 1016.12 1016.44 1016.60 1016.64 1016.64 1016.72 1017.04 1017.24 1017.40 1017.52 1017.68 1017.88 1018.04 1018.20 1018.28 1018.48 1018.64 1018.72 1018.88 1018.92 1019.04 1019.20 1019.32
1014.08 1013.56 1013.88 1014.88 1015.56 1014.96 1014.20 1014.28 1014.48 1014.72 1014.88 1015.04 1015.16 1015.24 1015.28 1015.48 1015.64 1015.72 1015.84 1016.00 1016.28 1016.52 1016.56 1016.52 1016.60 1016.88 1017.12 1017.36 1017.56 1017.76 1017.92 1018.08 1018.24 1018.36 1018.52 1018.72 1018.80 1018.92 1019.00 1019.04 1019.20 1019.32
1014.16 1013.80 1013.48 1014.16 1015.40 1015.64 1014.60 1014.36 1014.52 1014.64 1014.72 1014.88 1015.08 1015.24 1015.28 1015.44 1015.56 1015.68 1015.80 1015.92 1016.12 1016.32 1016.40 1016.44 1016.48 1016.72 1016.92 1017.12 1017.44 1017.64 1017.84 1018.04 1018.20 1018.28 1018.44 1018.68 1018.84 1018.92 1019.00 1019.08 1019.20 1019.24
1014.16 1014.20 1013.88 1013.88 1014.92 1015.80 1015.00 1014.36 1014.44 1014.52 1014.56 1014.72 1014.92 1015.12 1015.32 1015.44 1015.56 1015.72 1015.88 1015.96 1016.08 1016.16 1016.20 1016.24 1016.36 1016.60 1016.84 1016.96 1017.08 1017.40 1017.60 1017.76 1018.00 1018.16 1018.28 1018.44 1018.56 1018.76 1018.92 1019.04 1019.04 1019.20
1013.64 1014.04 1014.24 1014.40 1014.92 1015.96 1015.52 1014.44 1014.48 1014.60 1014.68 1014.80 1014.92 1015.08 1015.16 1015.40 1015.60 1015.76 1015.92 1016.04 1016.08 1016.04 1016.12 1016.16 1016.20 1016.44 1016.76 1016.96 1017.04 1017.12 1017.28 1017.48 1017.68 1017.92 1018.20 1018.36 1018.40 1018.52 1018.68 1018.84 1018.96 1019.04
1013.08 1013.52 1013.92 1014.32 1014.64 1015.60 1016.04 1015.00 1014.60 1014.76 1014.84 1014.96 1015.00 1015.00 1015.12 1015.28 1015.48 1015.68 1015.80 1015.96 1016.00 1016.00 1016.04 1016.12 1016.20 1016.24 1016.44 1016.72 1016.96 1017.08 1017.24 1017.36 1017.48 1017.72 1018.00 1018.24 1018.36 1018.44 1018.52 1018.60 1018.76 1018.88
1013.00 1013.20 1013.44 1013.88 1014.20 1014.96 1015.96 1015.92 1014.92 1014.80 1014.92 1015.04 1015.00 1015.00 1015.12 1015.32 1015.44 1015.68 1015.88 1016.04 1016.24 1016.24 1016.28 1016.32 1016.40 1016.44 1016.48 1016.56 1016.80 1017.04 1017.20 1017.36 1017.52 1017.68 1017.84 1018.04 1018.24 1018.36 1018.40 1018.52 1018.64 1018.72
1013.32 1013.40 1013.52 1013.68 1013.88 1014.20 1015.20 1016.00 1015.32 1014.88 1015.00 1015.04 1015.08 1015.16 1015.28 1015.36 1015.52 1015.76 1016.12 1016.24 1016.52 1016.60 1016.80 1016.68 1016.60 1016.64 1016.68 1016.64 1016.64 1016.88 1017.16 1017.36 1017.48 1017.64 1017.76 1017.92 1018.08 1018.24 1018.36 1018.48 1018.56 1018.64
1013.52 1013.64 1013.68 1013.72 1013.72 1013.92 1014.44 1015.40 1015.20 1014.76 1014.88 1015.00 1015.12 1015.32 1015.44 1015.48 1015.64 1015.80 1016.12 1016.56 1016.92 1017.00 1017.08 1017.12 1016.96 1017.00 1017.12 1017.00 1016.72 1016.76 1016.84 1017.04 1017.32 1017.56 1017.68 1017.96 1018.08 1018.16 1018.32 1018.36 1018.44 1018.64
1013.72 1013.84 1013.92 1013.96 1013.96 1013.84 1013.88 1014.56 1015.00 1014.84 1014.88 1015.08 1015.16 1015.24 1015.48 1015.68 1015.84 1016.00 1016.16 1016.52 1016.96 1017.32 1017.44 1017.48 1017.48 1017.60 1017.48 1017.24 1017.00 1016.68 1016.72 1016.84 1017.00 1017.16 1017.40 1017.72 1018.00 1018.28 1018.44 1018.56 1018.76 1018.88
1013.88 1013.80 1013.88 1014.04 1014.00 1014.08 1014.16 1014.20 1014.80 1014.88 1015.16 1015.24 1015.20 1015.32 1015.56 1015.80 1015.96 1016.28 1016.60 1016.88 1017.04 1017.20 1017.36 1017.60 1017.64 1017.68 1017.56 1017.24 1016.96 1016.68 1016.64 1016.84 1016.96 1017.20 1017.32 1017.60 1017.84 1018.08 1018.52 1018.80 1019.08 1019.24
1013.64 1013.84 1014.16 1014.44 1014.16 1014.12 1014.28 1014.56 1014.72 1014.92 1015.20 1015.28 1015.32 1015.56 1015.88 1016.04 1016.24 1016.64 1017.00 1017.24 1017.40 1017.52 1017.48 1017.60 1017.56 1017.72 1017.52 1017.24 1016.96 1016.68 1016.64 1016.80 1016.96 1017.20 1017.48 1017.64 1017.88 1018.24 1018.60 1018.88 1019.20 1019.44
1014.12 1013.84 1013.96 1013.80 1013.88 1014.20 1014.32 1014.52 1015.00 1015.20 1015.48 1015.32 1015.56 1015.84 1016.12 1016.36 1016.76 1017.00 1017.32 1017.56 1017.52 1017.40 1017.60 1017.80 1017.60 1017.68 1017.36 1017.12 1016.96 1016.76 1016.72 1016.88 1017.24 1017.32 1017.44 1017.84 1018.16 1018.48 1018.88 1019.24 1019.48 1019.68
1015.04 1014.12 1013.84 1013.72 1013.88 1014.24 1014.36 1014.48 1015.04 1015.04 1015.60 1015.72 1015.84 1016.24 1016.48 1016.88 1017.12 1017.32 1017.64 1017.80 1017.92 1017.80 1017.88 1017.96 1017.76 1017.76 1017.40 1017.12 1016.96 1016.92 1017.00 1017.20 1017.52 1017.72 1018.00 1018.36 1018.68 1018.96 1019.36 1019.72 1019.96 1020.04
1015.80 1015.20 1014.92 1014.44 1013.96 1014.28 1014.40 1014.56 1014.88 1015.20 1016.24 1016.68 1016.24 1016.52 1016.80 1017.12 1017.40 1017.64 1017.96 1018.16 1018.24 1018.20 1017.92 1018.04 1018.32 1018.12 1017.60 1017.24 1017.16 1017.12 1017.24 1017.48 1017.88 1018.20 1018.64 1019.16 1019.60 1019.84 1020.04 1020.36 1020.56 1020.60
1016.48 1016.08 1015.48 1015.56 1015.20 1014.60 1015.00 1015.12 1015.36 1015.36 1016.24 1017.24 1016.92 1017.24 1017.40 1017.56 1018.04 1018.16 1018.32 1018.44 1018.52 1018.40 1018.04 1018.24 1018.60 1018.44 1018.00 1017.52 1017.32 1017.32 1017.44 1017.96 1018.36 1018.80 1019.32 1019.80 1020.24 1020.52 1020.64 1020.76 1020.84 1020.84
1017.28 1017.04 1016.52 1016.20 1016.36 1015.84 1015.72 1015.76 1015.88 1016.12 1016.56 1017.44 1017.40 1017.88 1017.92 1018.12 1018.44 1018.68 1018.88 1018.92 1018.88 1018.80 1018.68 1018.80 1018.92 1018.88 1018.52 1017.84 1017.60 1017.56 1017.80 1018.44 1018.88 1019.36 1019.84 1020.24 1020.68 1020.80 1020.88 1021.00 1021.12 1021.16
1017.84 1017.76 1017.44 1017.12 1016.92 1017.08 1016.76 1016.64 1016.64 1016.84 1017.16 1017.56 1017.84 1018.28 1018.60 1018.80 1018.76 1018.92 1019.16 1019.28 1019.28 1019.36 1019.44 1019.32 1019.52 1019.48 1019.08 1018.40 1017.96 1017.88 1017.96 1018.60 1019.12 1019.64 1020.36 1020.64 1021.08 1021.24 1021.28 1021.32 1021.40 1021.40
1018.48 1018.20 1018.04 1017.56 1017.44 1017.92 1017.92 1017.40 1017.20 1017.20 1017.76 1018.04 1018.16 1018.68 1019.08 1019.08 1018.96 1018.92 1019.36 1019.64 1019.84 1019.88 1019.72 1019.84 1020.08 1020.04 1019.80 1019.32 1018.76 1018.40 1018.40 1018.76 1019.12 1019.64 1020.36 1021.00 1021.12 1021.48 1021.64 1021.72 1021.92 1021.96
1019.08 1018.76 1018.56 1018.40 1018.40 1018.48 1018.64 1018.40 1017.80 1017.52 1018.04 1018.56 1018.72 1019.28 1019.60 1019.48 1019.24 1019.32 1019.64 1020.16 1020.24 1020.08 1020.16 1020.36 1020.52 1020.64 1020.60 1020.20 1019.72 1019.36 1018.88 1018.80 1019.08 1019.48 1020.44 1021.00 1021.20 1021.32 1021.56 1021.84 1022.00 1022.12
Thickness
5644 5646 5646 5645 5644 5642 5639 5638 5637 5637 5637 5636 5636 5635 5636 5637 5634 5631 5635 5639 5641 5640 5639 5638 5639 5638 5637 5635 5634 5633 5632 5631 5631 5630 5629 5628 5627 5627 5626 5626 5626 5626
5634 5639 5640 5640 5640 5640 5638 5638 5637 5638 5637 5636 5636 5636 5636 5635 5632 5631 5634 5638 5639 5640 5639 5639 5639 5638 5636 5634 5632 5631 5630 5630 5629 5628 5627 5626 5626 5625 5625 5625 5625 5625
5626 5629 5633 5636 5637 5637 5637 5637 5637 5637 5637 5636 5636 5635 5635 5635 5633 5632 5634 5636 5637 5638 5638 5638 5638 5637 5635 5633 5631 5630 5629 5629 5628 5626 5625 5624 5624 5624 5624 5624 5623 5623
5625 5622 5626 5632 5634 5636 5636 5636 5636 5636 5636 5635 5636 5635 5634 5634 5634 5633 5633 5634 5635 5636 5636 5637 5637 5635 5633 5632 5630 5628 5628 5627 5626 5625 5624 5622 5622 5623 5623 5622 5622 5621
5631 5625 5625 5629 5633 5635 5636 5635 5634 5635 5635 5635 5635 5635 5634 5633 5633 5632 5632 5632 5633 5633 5634 5635 5635 5633 5631 5630 5629 5627 5626 5626 5625 5624 5623 5621 5622 5622 5621 5621 5620 5619
5634 5629 5625 5625 5630 5635 5635 5635 5634 5632 5633 5633 5634 5633 5633 5633 5632 5632 5632 5632 5631 5631 5631 5632 5632 5631 5629 5628 5627 5626 5625 5624 5623 5623 5622 5621 5621 5620 5620 5619 5619 5618
5628 5629 5627 5622 5623 5629 5633 5633 5632 5630 5630 5631 5631 5631 5631 5630 5630 5630 5631 5631 5630 5629 5629 5630 5629 5628 5626 5626 5625 5623 5622 5622 5621 5621 5620 5620 5619 5618 5619 5618 5618 5617
5623 5628 5631 5626 5620 5622 5628 5630 5629 5628 5628 5628 5628 5628 5628 5628 5628 5628 5629 5629 5629 5628 5628 5629 5628 5627 5625 5624 5623 5621 5620 5619 5619 5619 5617 5617 5617 5616 5616 5616 5616 5616
5619 5623 5630 5630 5621 5617 5623 5626 5626 5626 5627 5626 5626 5625 5626 5626 5625 5626 5626 5627 5628 5627 5627 5628 5627 5626 5624 5622 5621 5620 5619 5618 5617 5617 5616 5615 5614 5614 5615 5614 5614 5614
5617 5617 5622 5626 5621 5614 5618 5623 5623 5623 5625 5624 5624 5624 5624 5624 5623 5624 5624 5625 5626 5627 5627 5627 5626 5625 5623 5622 5621 5619 5619 5618 5617 5616 5615 5614 5614 5614 5613 5613 5613 5612
5619 5617 5616 5619 5617 5611 5612 5619 5620 5619 5621 5621 5621 5622 5622 5621 5621 5621 5622 5623 5623 5625 5626 5625 5625 5624 5622 5620 5619 5619 5618 5618 5617 5616 5614 5613 5613 5613 5612 5612 5611 5611
5623 5621 5618 5618 5617 5610 5606 5611 5616 5617 5617 5617 5618 5620 5620 5619 5620 5620 5620 5620 5620 5622 5623 5623 5623 5622 5621 5619 5618 5617 5617 5617 5616 5615 5613 5612 5611 5611 5611 5611 5610 5610
5622 5622 5621 5619 5618 5613 5605 5604 5611 5614 5614 5614 5616 5617 5618 5618 5618 5617 5617 5616 5616 5617 5618 5619 5620 5619 5618 5618 5616 5616 5615 5615 5614 5613 5612 5611 5610 5610 5609 5609 5609 5609
5618 5619 5620 5619 5619 5617 5608 5603 5608 5612 5611 5611 5612 5613 5614 5616 5616 5614 5612 5610 5610 5611 5612 5613 5615 5615 5615 5615 5615 5614 5613 5613 5612 5612 5611 5610 5609 5608 5608 5607 5607 5607
5614 5614 5615 5616 5617 5617 5612 5606 5606 5611 5609 5607 5608 5609 5610 5612 5612 5610 5608 5606 5605 5605 5606 5607 5609 5609 5610 5610 5612 5613 5612 5612 5611 5610 5609 5607 5606 5606 5605 5605 5605 5604
5610 5610 5611 5612 5613 5614 5613 5607 5604 5606 5605 5603 5605 5607 5607 5607 5607 5606 5604 5602 5601 5600 5601 5601 5602 5603 5604 5606 5609 5611 5612 5612 5611 5610 5609 5606 5604 5603 5602 5602 5602 5601
5607 5607 5606 5607 5608 5609 5608 5605 5602 5601 5600 5599 5601 5602 5602 5603 5602 5600 5599 5598 5597 5597 5597 5598 5598 5599 5600 5602 5604 5607 5608 5609 5609 5608 5607 5605 5603 5601 5599 5599 5597 5596
5604 5604 5601 5602 5605 5605 5603 5601 5598 5597 5595 5595 5597 5597 5597 5598 5596 5593 5593 5593 5593 5593 5593 5594 5595 5595 5597 5599 5601 5603 5604 5604 5605 5605 5604 5602 5599 5597 5596 5595 5594 5592
5598 5600 5600 5601 5602 5601 5600 5597 5594 5593 5592 5591 5592 5591 5591 5591 5588 5587 5587 5587 5588 5590 5590 5591 5591 5591 5593 5596 5598 5599 5599 5599 5599 5600 5600 5598 5595 5593 5591 5589 5588 5587
5589 5594 5597 5600 5599 5597 5596 5595 5592 5591 5588 5585 5587 5586 5585 5584 5582 5581 5581 5580 5581 5584 5584 5586 5587 5588 5589 5592 5593 5595 5594 5593 5593 5594 5593 5591 5588 5586 5584 5582 5581 5581
5581 5585 5588 5591 5593 5593 5592 5591 5590 5589 5582 5578 5579 5580 5578 5577 5575 5575 5575 5574 5574 5577 5579 5580 5581 5582 5585 5587 5588 5590 5589 5588 5587 5586 5584 5582 5580 5579 5578 5575 5575 5575
5572 5575 5578 5580 5583 5585 5586 5584 5585 5585 5578 5570 5570 5571 5570 5569 5568 5567 5569 5568 5568 5571 5573 5573 5573 5575 5579 5582 5584 5585 5584 5582 5580 5578 5575 5573 5571 5571 5571 5570 5569 5569
5562 5565 5568 5569 5571 5574 5577 5577 5577 5576 5572 5565 5563 5562 5561 5561 5561 5560 5561 5561 5561 5563 5565 5566 5566 5567 5571 5576 5579 5581 5579 5575 5573 5570 5567 5565 5564 5564 5565 5565 5563 5563
5554 5555 5558 5561 5562 5562 5564 5567 5568 5567 5563 5560 5559 5556 5552 5552 5554 5555 5554 5554 5554 5555 5557 5558 5557 5558 5562 5567 5571 5574 5574 5570 5567 5564 5560 5558 5557 5557 5558 5557 5556 5556
5546 5548 5549 5553 5554 5551 5552 5556 5560 5560 5556 5553 5552 5549 5545 5545 5549 5550 5548 5546 5546 5548 5549 5550 5549 5549 5552 5556 5561 5565 5567 5565 5563 5559 5554 5551 5551 5551 5550 5549 5549 5548
5538 5539 5541 5543 5543 5543 5542 5544 5550 5553 5549 5545 5545 5542 5538 5539 5541 5542 5541 5539 5539 5541 5542 5542 5541 5541 5543 5545 5550 5554 5557 5558 5558 5555 5550 5546 5545 5545 5545 5543 5542 5541